Wind_Speed
34 22 31 27 23 19 17 15 13 11 9 8 7 6 7 6 6 5 4 3 4 5 6 5 4 4 4 3 3 4 6 5 5 4 7 10 12 11 11 12 14 17 17
33 26 34 29 24 21 19 17 14 12 11 10 9 9 9 8 8 7 6 6 6 6 7 6 6 6 5 4 5 5 4 6 6 6 6 10 13 12 13 15 16 18 18
30 25 35 30 25 23 21 19 16 15 15 14 13 12 11 11 11 11 10 9 8 8 8 9 8 8 7 6 6 7 6 6 7 6 6 9 12 15 15 17 18 20 19
28 27 35 32 28 26 24 21 19 18 17 16 16 15 14 14 14 13 12 11 11 11 10 10 9 9 9 9 8 7 8 7 7 7 8 9 10 13 17 19 20 22 21
27 30 33 32 30 27 25 22 20 18 17 17 16 15 15 14 14 16 15 14 14 15 14 12 11 12 12 10 10 9 8 8 8 8 9 9 13 15 17 21 22 22 22
28 30 31 33 31 28 26 23 20 18 18 17 16 16 17 15 17 17 17 16 16 16 16 15 14 14 14 13 12 12 9 10 9 10 10 10 14 17 18 22 24 24 23
30 33 32 34 32 29 26 24 20 18 17 14 14 15 16 16 17 16 19 17 18 18 18 17 17 16 17 16 14 13 12 11 11 12 12 11 16 17 19 20 24 24 24
29 32 33 33 31 29 27 24 21 18 16 14 13 14 15 16 15 16 18 17 17 17 18 19 19 19 19 18 16 16 14 13 12 14 12 12 15 20 19 20 22 24 24
28 30 31 32 32 30 27 24 21 18 17 14 13 14 14 14 13 14 15 16 17 18 19 19 19 19 19 18 16 18 16 15 13 15 14 14 14 20 22 21 22 25 27
27 28 31 32 30 29 27 24 20 17 15 15 15 16 16 16 14 13 14 14 14 16 18 20 21 21 23 21 19 19 18 15 15 16 16 16 14 18 21 22 23 26 26
28 30 31 32 32 28 25 22 19 16 15 16 17 18 17 17 15 13 13 15 15 15 16 16 17 21 23 22 21 19 19 16 17 18 17 16 14 17 20 23 24 23 23
34 33 33 33 32 29 25 21 17 15 16 18 18 19 19 19 17 15 14 14 13 14 15 16 17 17 18 20 21 19 20 18 17 18 18 17 15 17 19 21 25 27 29
39 36 35 33 30 28 24 20 16 15 17 19 19 20 21 19 18 17 16 13 13 13 14 16 15 12 17 18 20 21 20 18 18 17 18 16 14 17 19 23 27 27 29
36 38 34 32 29 26 22 18 13 14 16 19 18 17 20 21 21 19 19 15 13 13 13 11 12 11 14 17 18 21 20 19 18 17 17 16 15 17 20 24 29 30 23
37 37 34 31 28 25 20 14 13 14 14 12 13 14 16 19 21 19 18 16 15 13 13 10 12 11 12 15 18 21 20 19 18 17 17 15 15 17 19 23 29 27 28
35 32 30 30 27 23 17 14 13 15 13 13 13 13 15 16 17 18 18 17 16 13 11 10 11 10 11 14 17 18 17 16 16 15 16 16 14 17 19 22 27 27 26
30 28 29 31 27 20 16 13 14 15 13 13 14 13 13 14 16 17 18 17 15 12 11 12 10 11 11 13 14 13 13 13 14 12 16 16 13 16 19 22 26 24 25
26 25 32 30 25 19 16 13 15 13 12 13 13 12 11 11 14 16 16 15 12 11 11 11 10 11 10 12 13 12 11 12 13 13 14 14 14 15 19 23 26 23 24
25 30 34 28 23 19 16 14 13 11 10 11 11 11 9 10 13 15 15 13 12 11 11 10 11 12 12 13 11 9 8 10 10 9 12 11 12 14 17 23 26 25 26
27 35 31 24 20 18 14 12 11 9 8 10 10 11 10 10 10 13 13 12 11 12 11 11 12 12 12 12 9 7 6 7 8 8 9 10 10 12 17 20 22 27 29
35 36 31 26 21 19 13 11 7 4 7 9 10 10 11 9 9 10 12 11 11 13 11 11 13 13 9 12 10 6 5 2 5 7 7 6 8 10 13 18 27 30 27
35 34 29 25 21 16 11 6 2 4 6 8 8 7 8 9 9 10 10 11 11 11 11 14 16 13 6 11 5 5 2 4 8 3 2 2 5 8 12 17 24 28 31
30 32 27 23 18 13 8 4 1 4 3 3 3 2 5 6 6 8 10 11 10 10 12 17 18 14 10 10 11 5 2 2 3 3 2 3 5 6 10 17 23 30 35
29 28 24 20 17 12 7 3 1 1 2 3 4 5 6 4 3 4 7 10 10 11 13 18 18 14 13 11 8 5 2 6 3 2 3 3 5 7 14 17 24 29 34
29 27 23 20 16 11 6 3 1 2 2 4 5 6 5 4 2 3 6 7 9 11 12 16 17 15 16 16 13 9 4 3 6 3 3 3 10 13 16 11 19 31 29
24 24 23 18 15 10 7 3 1 1 2 4 5 6 5 1 4 5 6 8 9 10 12 14 13 12 12 15 19 14 11 4 5 4 3 4 6 5 21 18 18 23 34
Wind_Direction
196 189 192 188 188 186 188 189 191 195 198 202 207 212 212 213 215 228 238 259 293 302 301 299 294 284 273 271 286 270 257 251 247 258 235 215 204 196 197 189 170 163 160
186 194 194 192 190 193 195 199 201 204 207 214 218 221 223 232 233 234 251 266 273 282 288 292 285 281 268 265 269 272 274 261 258 260 248 225 209 208 197 189 182 173 170
183 187 191 195 194 198 201 206 209 210 212 216 219 221 225 230 235 232 232 238 253 261 272 276 279 278 272 259 263 266 258 261 255 259 255 230 212 211 206 197 189 177 175
185 186 191 195 197 201 204 209 212 213 217 221 224 224 220 224 233 240 246 244 250 254 255 261 268 271 272 267 251 260 247 250 253 250 253 229 218 206 205 200 190 181 177
187 193 193 195 199 202 206 210 211 215 219 223 226 228 232 234 241 241 247 251 251 252 250 249 259 266 273 266 257 254 250 243 249 249 243 233 216 210 206 202 196 188 183
187 193 195 198 201 204 207 211 213 219 223 225 223 229 236 235 246 251 250 251 256 258 254 254 254 256 264 263 260 250 252 239 241 245 243 232 216 213 212 206 203 201 190
189 196 200 201 204 206 210 213 215 221 226 230 230 234 242 243 251 259 255 249 254 259 257 258 258 256 255 256 256 252 249 247 237 243 240 236 219 213 216 210 208 204 191
190 196 201 203 208 210 212 214 217 223 225 229 238 236 242 250 254 255 262 258 255 258 261 260 259 259 256 254 252 248 251 247 233 241 244 238 225 216 218 218 212 203 190
196 198 203 206 210 214 214 214 219 223 225 231 238 238 240 245 250 256 260 261 258 257 259 262 262 263 261 256 251 247 245 243 243 241 245 238 232 223 219 219 213 203 194
202 205 207 208 211 213 215 217 221 225 233 238 239 237 236 240 245 254 265 264 261 261 257 256 257 260 261 255 251 246 240 237 238 240 243 240 238 226 222 219 216 209 206
208 210 211 209 210 211 214 218 223 227 238 241 238 237 240 242 246 257 263 266 268 261 258 255 254 253 253 252 248 243 237 234 233 237 242 241 243 227 222 217 215 204 195
213 213 213 210 208 207 211 215 220 232 244 240 240 239 243 248 247 259 257 263 267 264 263 265 269 254 245 244 238 235 233 232 238 237 239 244 243 228 217 210 207 196 186
214 215 212 208 207 206 208 209 220 243 243 243 242 244 246 245 245 254 251 255 259 257 258 258 263 270 238 238 233 226 225 230 236 241 240 246 246 230 219 206 196 202 193
214 214 208 204 204 205 203 207 230 233 237 239 244 244 238 237 242 251 244 248 255 260 259 262 257 261 238 233 229 219 221 229 236 242 244 245 241 229 218 209 202 195 190
219 215 205 200 200 198 199 214 219 225 229 235 241 242 237 245 251 248 247 249 251 259 257 262 256 252 237 230 220 219 225 234 236 242 245 243 235 228 211 207 200 192 197
220 215 201 198 193 192 205 214 221 227 232 237 248 252 253 254 251 249 254 249 247 254 257 262 258 246 236 222 219 218 226 238 236 246 250 245 242 226 212 204 199 190 179
216 208 195 186 185 194 202 214 224 233 239 246 252 253 258 258 253 252 250 254 236 247 250 252 250 235 231 225 220 217 233 241 235 250 245 243 248 227 211 204 196 193 183
198 191 181 182 185 194 204 218 233 240 245 253 254 254 260 269 254 245 242 241 235 246 250 250 245 228 225 215 214 225 240 235 238 250 241 237 243 224 215 209 195 190 181
185 182 179 180 188 194 209 217 234 243 256 256 261 255 263 276 259 241 237 236 238 243 248 246 233 218 211 207 214 228 238 237 249 244 226 235 235 217 208 202 189 182 174
177 173 175 179 186 195 204 223 236 255 266 268 274 263 264 279 262 245 238 236 234 238 239 227 211 204 209 207 213 225 218 234 223 232 227 229 218 210 207 205 193 186 179
169 172 170 173 183 190 200 218 233 260 286 288 279 262 265 275 264 251 237 230 232 232 231 211 190 192 180 189 144 122 93 192 207 232 205 216 208 210 202 201 183 176 176
163 164 164 171 180 188 204 209 236 293 294 299 295 269 266 278 269 250 232 231 229 221 211 194 185 172 159 158 140 115 88 75 78 130 148 163 217 204 198 189 183 175 170
152 162 167 169 176 184 190 174 250 292 308 320 321 290 297 300 273 245 235 222 224 220 204 187 184 179 153 175 159 131 125 148 134 100 156 183 194 199 198 190 180 171 173
158 164 165 168 174 173 159 155 247 4 10 320 307 302 308 303 262 242 214 213 230 207 198 187 184 184 177 174 182 188 145 140 147 140 130 132 204 178 171 183 178 170 172
162 165 166 168 173 165 156 173 156 69 12 338 337 313 309 303 205 206 207 208 191 190 185 181 186 187 187 193 179 170 156 134 135 135 123 141 158 177 166 171 188 175 170
164 163 166 173 172 167 175 176 133 91 28 13 352 328 323 284 183 173 172 164 172 182 180 183 189 201 196 197 185 175 172 159 166 135 119 98 92 154 164 164 175 179 175
Height
767 771 775 778 782 785 787 788 790 791 792 793 793 794 795 797 797 798 799 801 801 801 802 800 802 803 803 805 806 806 807 807 809 810 813 813 814 817 819 821 821 822 823
761 768 773 777 781 783 786 787 789 790 792 793 793 794 795 796 797 797 798 799 799 800 802 800 801 802 803 803 805 806 806 807 808 809 810 813 813 816 818 819 820 821 823
761 766 771 776 780 782 784 785 787 789 790 791 793 794 795 796 798 798 798 799 800 800 801 801 800 801 802 802 803 805 805 806 806 807 809 811 812 813 816 819 820 821 823
760 764 768 773 776 778 781 783 785 787 789 790 792 793 792 794 796 798 797 796 798 799 800 800 801 800 800 801 801 803 804 805 805 807 807 809 811 812 814 816 818 820 823
759 762 766 770 773 776 779 781 783 785 786 788 790 792 793 794 794 793 795 794 795 797 798 798 798 799 798 799 799 800 802 804 804 806 806 807 809 810 812 814 817 819 821
757 761 765 768 771 773 776 778 781 783 784 786 786 788 789 791 792 793 793 792 793 794 795 795 796 796 796 796 798 799 800 801 803 804 805 806 807 809 810 812 816 817 819
754 759 762 765 768 771 774 777 779 780 782 783 784 785 787 788 788 789 791 790 790 791 791 791 793 793 793 794 796 797 798 799 801 802 802 804 805 807 809 810 812 815 818
752 755 760 764 767 769 772 774 776 778 779 781 781 782 784 786 785 786 788 788 787 787 787 788 788 789 791 792 792 793 794 797 799 800 800 802 804 805 807 809 810 813 813
752 755 759 761 764 768 769 772 774 776 777 778 779 780 781 783 783 784 784 784 784 783 784 784 784 785 786 787 789 790 791 795 795 796 798 800 802 803 804 807 809 811 814
750 753 754 758 762 766 768 771 772 774 774 775 776 778 778 780 781 781 781 780 780 780 780 781 780 780 782 784 785 787 789 791 792 793 795 798 799 800 802 804 807 810 814
747 747 751 753 757 762 766 768 770 771 772 773 773 775 776 777 778 778 777 777 776 776 778 778 777 778 779 780 781 784 787 789 790 792 793 795 797 798 799 802 805 810 814
741 743 746 750 754 758 762 766 768 769 769 770 770 771 772 773 774 775 774 774 773 773 774 774 774 773 775 776 778 781 783 786 788 790 791 794 795 795 798 800 803 806 807
735 739 741 747 753 757 760 763 765 765 767 767 767 768 769 770 771 771 771 770 770 770 770 770 770 770 772 773 775 778 781 784 786 788 789 790 792 792 794 797 800 803 805
731 732 739 745 751 756 759 760 762 763 763 764 764 765 766 766 767 767 767 768 768 767 767 767 767 768 770 771 773 776 779 781 783 784 785 787 789 789 791 793 796 799 805
727 729 735 743 749 754 757 759 759 761 760 760 761 762 762 762 763 763 763 763 764 764 765 764 765 766 767 769 771 774 776 778 780 782 783 785 787 788 789 791 794 801 804
720 728 736 742 748 753 756 757 757 758 758 757 758 758 758 758 758 759 759 759 760 761 762 762 763 763 765 767 769 772 775 777 778 779 781 783 785 786 787 789 793 798 803
716 725 734 740 746 750 753 755 756 755 755 754 755 754 754 754 754 755 755 755 756 758 759 760 760 761 763 765 768 770 772 774 776 777 779 781 783 783 785 788 792 796 802
712 724 733 739 744 748 751 752 754 753 751 751 752 752 751 751 750 750 751 752 753 755 756 757 757 759 761 764 766 769 771 773 775 775 777 779 781 782 784 787 790 796 801
710 721 731 736 742 746 749 750 751 750 748 749 748 748 748 747 746 747 747 749 750 752 753 754 756 758 760 763 765 768 770 771 773 774 776 777 779 780 783 785 792 795 802
709 720 730 736 741 745 748 748 748 747 746 745 745 745 745 744 743 743 744 745 747 749 751 753 755 757 759 762 765 767 768 770 772 774 775 777 778 780 783 787 792 795 798
708 717 722 732 739 743 745 746 745 743 743 743 742 742 741 741 741 740 741 743 745 746 748 751 754 756 759 761 764 767 768 769 772 774 775 776 777 778 782 786 791 795 800
706 714 724 729 737 741 743 742 741 741 741 740 739 738 739 738 737 737 739 741 743 745 747 749 752 755 757 760 762 765 770 772 773 775 775 777 779 780 782 786 792 796 801
710 718 725 729 735 739 739 739 740 740 740 739 738 737 737 736 734 735 737 739 742 743 745 746 750 753 756 759 761 764 770 772 774 776 777 779 780 781 783 787 791 796 801
714 719 725 729 734 736 736 738 739 739 738 738 737 736 735 734 733 734 736 738 740 742 743 745 749 752 754 757 761 763 764 766 772 777 779 780 782 783 784 787 782 794 798
714 718 724 729 733 734 735 738 738 737 737 737 736 735 734 733 733 734 736 737 739 741 743 745 749 752 755 756 760 763 765 766 767 771 778 781 782 784 786 787 791 793 798
716 720 724 728 731 733 735 737 737 737 737 736 735 733 732 732 732 734 736 738 739 741 743 746 749 752 754 756 758 761 762 765 766 768 774 780 783 786 786 789 793 793 796